Weather History for Evanston, WY

Change the Weather History Date:

Friday, October 4, 2013

  Actual Average Record
Temperature  
Mean Temperature 34 °F 49 °F  
Max Temperature 42 °F 61 °F 70 °F (1999)
Min Temperature 25 °F 36 °F 24 °F (2012)
Degree Days  
Heating Degree Days 31 16  
Month to date heating degree days 88 63  
Since 1 July heating degree days 367 460  
Cooling Degree Days 0 0  
Month to date cooling degree days 0 0  
Year to date cooling degree days 348 162  
Moisture  
Dew Point 25 °F    
Average Humidity 75    
Maximum Humidity 100    
Minimum Humidity 50    
Precipitation  
Precipitation T in 0.03 in 0.26 in (2005)
Month to date precipitation 0.12 0.11  
Year to date precipitation 4.18 9.45  
Sea Level Pressure  
Sea Level Pressure 30.20 in    
Wind  
Wind Speed 4 mph (WNW)    
Max Wind Speed 8 mph    
Max Gust Speed -    
Visibility 6 miles    
Events Fog , Snow    
T = Trace of Precipitation, MM = Missing Value Source: NWS Daily Summary

Daily Weather History Graph

Daily Weather History Graph

Search for Another Location

Airport:

Trip Planner

Search our weather history database for the weather conditions in past years. The results will help you decide how hot, cold, wet, or windy it might be!

Date:

Astronomy

Oct. 04, 2013 Rise Set
Actual Time 7:24 AM MDT 7:00 PM MDT
Civil Twilight 6:56 AM MDT 7:27 PM MDT
Nautical Twilight 6:24 AM MDT 7:59 PM MDT
Astronomical Twilight 5:52 AM MDT 8:32 PM MDT
Moon 7:03 AM MDT (10/4) 6:44 PM MDT (10/4)
Length of Visible Light 12h 31m
Length of Day
11h 36m
Waning Crescent, 0% of the Moon is Illuminated
Oct 4
Waning Crescent
Oct 4
New
Oct 11
First Quarter
Oct 18
Full
Oct 26
Last Quarter

Hourly Weather History & Observations

Time (MDT) Temp. Windchill Dew Point Humidity Pressure Visibility Wind Dir Wind Speed Gust Speed Precip Events Conditions
12:53 AM 28.0 °F - 23.0 °F 81% 30.01 in 10.0 mi Calm Calm - N/A   Clear
1:53 AM 28.0 °F 22.8 °F 24.1 °F 85% 30.03 in 10.0 mi North 4.6 mph - N/A   Mostly Cloudy
2:16 AM 26.6 °F 20.0 °F 24.8 °F 93% 30.07 in 10.0 mi North 5.8 mph - N/A   Mostly Cloudy
2:27 AM 26.6 °F 20.0 °F 24.8 °F 93% 30.07 in 10.0 mi North 5.8 mph - N/A   Mostly Cloudy
2:53 AM 27.0 °F 21.6 °F 26.1 °F 96% 30.06 in 9.0 mi North 4.6 mph - N/A   Overcast
3:09 AM 26.6 °F 21.2 °F 26.6 °F 100% 30.08 in 1.8 mi NNW 4.6 mph - N/A   Overcast
3:15 AM 26.6 °F 22.6 °F 26.6 °F 100% 30.08 in 0.8 mi NNW 3.5 mph - N/A   Mist
3:43 AM 26.6 °F - 26.6 °F 100% 30.09 in 1.8 mi Calm Calm - N/A   Overcast
3:45 AM 26.6 °F - 26.6 °F 100% 30.09 in 4.0 mi Calm Calm - N/A   Overcast
3:53 AM 26.1 °F 20.5 °F 25.0 °F 96% 30.08 in 8.0 mi South 4.6 mph - N/A   Overcast
4:01 AM 26.6 °F 22.6 °F 24.8 °F 93% 30.09 in 1.8 mi SW 3.5 mph - N/A   Overcast
4:03 AM 26.6 °F 21.2 °F 24.8 °F 93% 30.09 in 1.0 mi West 4.6 mph - N/A   Overcast
4:11 AM 26.6 °F - 24.8 °F 93% 30.10 in 0.5 mi Calm Calm - N/A Fog Light Freezing Fog
4:53 AM 25.0 °F - 24.1 °F 96% 30.11 in 0.2 mi Calm Calm - N/A Fog Light Freezing Fog
5:29 AM 26.6 °F - 24.8 °F 93% 30.12 in 0.2 mi Calm Calm - N/A Fog Light Freezing Fog
5:53 AM 26.1 °F 21.9 °F 25.0 °F 96% 30.14 in 1.2 mi SW 3.5 mph - N/A   Overcast
6:05 AM 26.6 °F - 24.8 °F 93% 30.14 in 2.0 mi Calm Calm - N/A   Overcast
6:28 AM 26.6 °F 21.2 °F 24.8 °F 93% 30.14 in 1.5 mi SSW 4.6 mph - N/A   Overcast
6:45 AM 26.6 °F - 24.8 °F 93% 30.15 in 1.2 mi Calm Calm - N/A   Overcast
6:51 AM 26.6 °F - 26.6 °F 100% 30.15 in 2.0 mi Calm Calm - N/A   Overcast
6:53 AM 27.0 °F - 26.1 °F 96% 30.18 in 2.5 mi Calm Calm - N/A   Overcast
7:00 AM 26.6 °F - 26.6 °F 100% 30.15 in 10.0 mi Calm Calm - N/A   Overcast
7:46 AM 26.6 °F - 26.6 °F 100% 30.17 in 2.5 mi Calm Calm - 0.00 in Snow Light Snow
7:48 AM 26.6 °F - 26.6 °F 100% 30.17 in 3.0 mi Calm Calm - 0.00 in Snow Light Snow
7:53 AM 27.0 °F 21.6 °F 26.1 °F 96% 30.22 in 4.0 mi WSW 4.6 mph - 0.00 in Snow Light Snow
8:11 AM 26.6 °F - 26.6 °F 100% 30.18 in 6.0 mi Calm Calm - 0.00 in Snow Light Snow
8:53 AM 28.0 °F - 27.0 °F 96% 30.24 in 8.0 mi Calm Calm - 0.00 in Snow Light Snow
9:53 AM 28.9 °F 23.9 °F 26.1 °F 89% 30.27 in 10.0 mi North 4.6 mph - 0.00 in   Overcast
10:53 AM 30.0 °F 25.2 °F 24.1 °F 79% 30.30 in 10.0 mi NW 4.6 mph - N/A   Overcast
11:53 AM 33.1 °F 28.7 °F 24.1 °F 70% 30.31 in 10.0 mi Variable 4.6 mph - N/A   Overcast
12:50 PM 35.6 °F 29.9 °F 23.0 °F 60% 30.30 in 10.0 mi NNW 6.9 mph - N/A   Overcast
12:53 PM 36.0 °F 31.1 °F 24.1 °F 62% 30.32 in 10.0 mi NNW 5.8 mph - N/A   Overcast
1:53 PM 36.0 °F 31.1 °F 24.1 °F 62% 30.32 in 10.0 mi WNW 5.8 mph - N/A   Overcast
2:53 PM 37.0 °F 32.4 °F 23.0 °F 57% 30.32 in 10.0 mi North 5.8 mph - N/A   Scattered Clouds
3:53 PM 37.0 °F 33.3 °F 23.0 °F 57% 30.33 in 10.0 mi NNW 4.6 mph - N/A   Mostly Cloudy
4:53 PM 39.9 °F 34.5 °F 23.0 °F 51% 30.32 in 10.0 mi NNW 8.1 mph - N/A   Mostly Cloudy
5:53 PM 37.0 °F 31.6 °F 24.1 °F 59% 30.35 in 10.0 mi NW 6.9 mph - N/A   Scattered Clouds
6:53 PM 37.0 °F 29.8 °F 24.1 °F 59% 30.37 in 10.0 mi NNW 10.4 mph - N/A   Overcast
7:53 PM 34.0 °F 28.0 °F 24.1 °F 67% 30.39 in 10.0 mi WNW 6.9 mph - N/A   Overcast
8:53 PM 30.9 °F 23.5 °F 25.0 °F 79% 30.40 in 10.0 mi WSW 8.1 mph - N/A   Overcast
9:53 PM 28.0 °F 20.0 °F 24.1 °F 85% 30.43 in 10.0 mi WSW 8.1 mph - N/A   Clear
10:53 PM 28.9 °F 20.4 °F 25.0 °F 85% 30.43 in 10.0 mi WSW 9.2 mph - N/A   Mostly Cloudy
11:53 PM 28.0 °F 22.8 °F 24.1 °F 85% 30.42 in 10.0 mi WSW 4.6 mph - N/A   Partly Cloudy